W2DEN Weather Reports


Display with metric or nautical units.
time (UTC)temp
F
wind
direction
speed
MPH
gust
MPH
rain 1hr
in
rain 24hr
in
rain mn
in
humidity
%
barometer
mb
20260901031036 75 0.0 0.0 0.00 0.00 0.00 94 1018.7
20260901030036 75 0.0 0.0 0.00 0.00 0.00 93 1018.6
20260901025016 75 0.0 0.0 0.00 0.00 0.00 93 1018.7
20260901024017 76 0.0 0.0 0.00 0.00 0.00 93 1018.8
20260901023017 76 0.0 0.0 0.00 0.00 0.00 93 1018.7
20260901022017 76 0.0 0.0 0.00 0.00 0.00 92 1018.7
20260901021036 76 0.0 0.0 0.00 0.00 0.00 92 1018.7
20260901020037 76 0.0 0.0 0.00 0.00 0.00 92 1018.6
20260901015016 76 0.0 0.0 0.00 0.00 0.00 91 1018.5
20260901014016 77 0.0 0.0 0.00 0.00 0.00 91 1018.4
20260901013016 77 0.0 0.0 0.00 0.00 0.00 90 1018.2
20260901012016 77 0.0 0.0 0.00 0.00 0.00 89 1018.0
20260901011016 78 0.0 0.0 0.00 0.00 0.00 89 1018.0
20260901010016 78 0.0 0.0 0.00 0.00 0.00 88 1017.9
20260901005017 78 0.0 0.0 0.00 0.00 0.00 87 1017.9
20260901004043 79 0.0 0.0 0.00 0.00 0.00 87 1017.9
20260901003117 79 0.0 0.0 0.00 0.00 0.00 86 1017.7
20260901002017 80 0.0 0.0 0.00 0.00 0.00 84 1017.7
20260901001017 81 0.0 0.0 0.00 0.00 0.00 82 1017.6
20260901000017 82 0.0 0.0 0.00 0.00 0.00 80 1017.6
20260831235017 83 0.0 0.0 0.00 0.00 0.00 78 1017.5
20260831234016 83 0.0 1.0 0.00 0.00 0.00 77 1017.3
20260831233016 84 0.0 0.0 0.00 0.00 0.00 77 1017.3
20260831232016 84 0.0 1.0 0.00 0.00 0.00 76 1017.5
20260831231017 85 0.0 0.0 0.00 0.00 0.00 75 1017.2
20260831230017 86 0.0 1.0 0.00 0.00 0.00 75 1017.3
20260831225016 86 0.0 1.0 0.00 0.00 0.00 74 1017.3
20260831224016 87 0.0 1.0 0.00 0.00 0.00 72 1017.2
20260831223016 87 0.0 1.0 0.00 0.00 0.00 71 1017.2
20260831222036 87 0.0 2.0 0.00 0.00 0.00 70 1017.1
20260831221036 88 0.0 0.0 0.00 0.00 0.00 68 1017.2
20260831220016 89 0.0 1.0 0.00 0.00 0.00 66 1017.2
20260831215016 90 135 1.0 2.0 0.00 0.00 0.00 63 1017.1
20260831214016 90 0 2.0 2.0 0.00 0.00 0.00 61 1017.1
20260831213016 92 0.0 1.0 0.00 0.00 0.00 59 1017.0
20260831212016 91 135 1.0 1.0 0.00 0.00 0.00 60 1017.1
20260831211016 91 135 1.0 2.0 0.00 0.00 0.00 61 1017.0
20260831210018 91 135 2.0 3.0 0.00 0.00 0.00 60 1017.0
20260831205036 91 23 1.0 1.0 0.00 0.00 0.00 61 1016.9
20260831204016 91 270 3.0 4.0 0.00 0.00 0.00 60 1016.9
20260831203017 91 0 2.0 3.0 0.00 0.00 0.00 61 1017.1
20260831202036 91 90 3.0 5.0 0.00 0.00 0.00 59 1017.0
20260831201016 91 68 1.0 2.0 0.00 0.00 0.00 59 1017.2
20260831200016 91 0.0 1.0 0.00 0.00 0.00 62 1017.4
20260831195016 91 135 2.0 2.0 0.00 0.00 0.00 63 1017.5
20260831194016 91 135 2.0 4.0 0.00 0.00 0.00 64 1017.6
20260831193016 91 90 3.0 6.0 0.00 0.00 0.00 63 1017.8
20260831192016 90 68 2.0 4.0 0.00 0.00 0.00 65 1017.9
20260831191016 90 0.0 1.0 0.00 0.00 0.00 69 1018.0
20260831190017 89 0.0 0.0 0.00 0.00 0.00 70 1018.0
20260831185016 86 0.0 1.0 0.00 0.00 0.00 75 1018.2
20260831184017 85 0.0 0.0 0.00 0.00 0.00 76 1018.6
20260831183016 84 90 1.0 1.0 0.00 0.00 0.00 74 1018.6
20260831182016 85 68 1.0 1.0 0.00 0.00 0.00 74 1018.9
20260831181015 88 68 1.0 3.0 0.00 0.00 0.00 69 1019.0
20260831180016 89 90 2.0 5.0 0.00 0.00 0.00 67 1018.8
20260831175016 86 0.0 1.0 0.00 0.00 0.00 74 1019.0
20260831174036 87 0.0 1.0 0.00 0.00 0.00 72 1019.0
20260831173036 88 23 2.0 3.0 0.00 0.00 0.00 68 1019.1
20260831172016 88 0 1.0 1.0 0.00 0.00 0.00 69 1019.2
20260831171017 88 0.0 1.0 0.00 0.00 0.00 70 1019.5
20260831170015 87 0 1.0 1.0 0.00 0.00 0.00 70 1019.6
20260831165016 88 0.0 0.0 0.00 0.00 0.00 68 1019.8
20260831164017 89 270 1.0 3.0 0.00 0.00 0.00 66 1019.9
20260831163016 89 0 1.0 2.0 0.00 0.00 0.00 65 1019.9
20260831162036 89 338 1.0 2.0 0.00 0.00 0.00 68 1020.0
20260831161016 87 0.0 1.0 0.00 0.00 0.00 74 1019.9
20260831160016 87 0.0 1.0 0.00 0.00 0.00 72 1019.9
20260831155016 86 0.0 1.0 0.00 0.00 0.00 72 1020.0
20260831154016 86 0.0 2.0 0.00 0.00 0.00 73 1020.0
20260831153016 86 135 1.0 2.0 0.00 0.00 0.00 74 1020.0
20260831152017 86 23 3.0 5.0 0.00 0.01 0.00 77 1019.9
20260831151018 85 180 1.0 2.0 0.00 0.01 0.00 79 1019.8
20260831150018 84 0.0 1.0 0.00 0.02 0.00 80 1019.9
20260831145018 83 68 1.0 2.0 0.00 0.02 0.00 83 1019.9
20260831144018 82 0.0 1.0 0.00 0.02 0.00 84 1019.8
20260831143038 81 0.0 1.0 0.00 0.02 0.00 86 1019.7
20260831142017 81 0 2.0 3.0 0.00 0.02 0.00 87 1019.5
20260831141017 81 0.0 1.0 0.00 0.02 0.00 89 1019.6
20260831140019 80 0.0 1.0 0.00 0.02 0.00 89 1019.6
20260831134017 80 45 1.0 1.0 0.00 0.02 0.00 89 1019.4
20260831133018 80 0.0 0.0 0.00 0.02 0.00 91 1019.4
20260831132017 80 23 1.0 2.0 0.00 0.02 0.00 93 1019.4
20260831131038 78 23 1.0 2.0 0.00 0.02 0.00 96 1019.5
20260831130018 77 23 1.0 1.0 0.00 0.02 0.00 96 1019.6
20260831125018 77 0.0 1.0 0.00 0.02 0.00 97 1019.6
20260831124017 76 0.0 1.0 0.00 0.03 0.00 97 1019.5
20260831123018 76 0.0 1.0 0.00 0.03 0.00 97 1019.3
20260831122018 75 0.0 1.0 0.00 0.03 0.00 97 1019.2
20260831121017 75 0.0 1.0 0.00 0.03 0.00 97 1019.3
20260831120019 75 0.0 1.0 0.00 0.03 0.00 97 1019.3
20260831115018 75 0.0 1.0 0.00 0.03 0.00 97 1019.3
20260831114018 74 0.0 0.0 0.00 0.03 0.00 97 1019.0
20260831113018 74 0.0 0.0 0.00 0.03 0.00 97 1019.0
20260831112019 74 0.0 0.0 0.00 0.03 0.00 97 1018.8
20260831111019 74 0.0 0.0 0.00 0.03 0.00 97 1018.7
20260831110018 74 0.0 0.0 0.00 0.03 0.00 97 1018.5
20260831105017 74 0.0 0.0 0.00 0.03 0.00 97 1018.5
20260831104055 74 0.0 0.0 0.00 0.03 0.00 97 1018.5
20260831103018 74 0.0 0.0 0.00 0.03 0.00 97 1018.5
20260831102019 74 0.0 0.0 0.00 0.03 0.00 96 1018.5
20260831101017 74 0.0 1.0 0.00 0.03 0.00 96 1018.4
20260831100039 74 0.0 0.0 0.00 0.03 0.00 96 1018.4
20260831095038 74 0.0 0.0 0.00 0.03 0.00 96 1018.5
20260831094018 74 0.0 0.0 0.00 0.03 0.00 96 1018.5
20260831093018 74 0.0 0.0 0.00 0.03 0.00 96 1018.5
20260831092018 74 0.0 0.0 0.00 0.03 0.00 96 1018.5
20260831091038 74 0.0 0.0 0.00 0.03 0.00 96 1018.4
20260831090018 74 0.0 0.0 0.00 0.03 0.00 97 1018.4
20260831085018 74 0.0 0.0 0.00 0.03 0.00 97 1018.3
20260831084018 74 0.0 0.0 0.00 0.03 0.00 96 1018.3
20260831083018 74 0.0 0.0 0.00 0.03 0.00 96 1018.3
20260831082018 74 0.0 0.0 0.00 0.03 0.00 96 1018.2
20260831081018 73 0.0 0.0 0.00 0.03 0.00 96 1018.1
20260831080018 73 0.0 0.0 0.00 0.03 0.00 96 1018.3
20260831075018 73 0.0 0.0 0.00 0.03 0.00 96 1018.3
20260831074017 73 0.0 0.0 0.00 0.03 0.00 96 1018.1
20260831073018 73 0.0 0.0 0.00 0.03 0.00 96 1018.2
20260831072017 73 0.0 0.0 0.00 0.03 0.00 96 1018.2
20260831071017 73 0.0 0.0 0.00 0.03 0.00 96 1018.4
20260831070018 73 0.0 0.0 0.00 0.03 0.00 96 1018.2
20260831065018 73 0.0 0.0 0.00 0.03 0.00 96 1018.3
20260831064018 74 0.0 0.0 0.00 0.03 0.00 96 1018.5
20260831063018 74 0.0 0.0 0.00 0.03 0.00 96 1018.6
20260831062017 74 0.0 0.0 0.00 0.03 0.00 96 1018.6
20260831061019 74 0.0 0.0 0.00 0.03 0.00 96 1018.4
20260831060057 74 0.0 0.0 0.00 0.03 0.00 96 1018.5
20260831055017 74 0.0 0.0 0.00 0.03 0.00 96 1018.6
20260831054020 74 0.0 0.0 0.00 0.03 0.00 96 1018.6
20260831053039 74 0.0 0.0 0.00 0.03 0.00 96 1018.6
20260831052021 74 0.0 0.0 0.00 0.03 0.00 96 1018.6
20260831051018 74 0.0 0.0 0.00 0.03 0.00 96 1018.4
20260831050058 74 0.0 0.0 0.00 0.03 0.00 96 1018.4
20260831045017 74 0.0 0.0 0.00 0.03 0.00 96 1018.5
20260831044017 74 0.0 0.0 0.00 0.03 0.00 96 1018.6
20260831043017 75 0.0 0.0 0.00 0.03 0.00 95 1018.8
20260831042019 75 0.0 0.0 0.00 0.03 0.00 95 1018.8
20260831041017 75 0.0 0.0 0.00 0.03 0.00 95 1018.6
20260831040057 75 0.0 0.0 0.00 0.03 0.03 95 1018.6
20260831035016 75 0.0 0.0 0.00 0.03 0.03 95 1018.8
20260831034017 75 0.0 0.0 0.00 0.03 0.03 95 1018.9
20260831033016 75 0.0 0.0 0.00 0.03 0.03 95 1018.9
20260831032016 75 0.0 0.0 0.00 0.03 0.03 95 1019.2